Hourly Data Report for September 25, 2017

All times are specified in Local Standard Time (LST). Add 1 hour to adjust for Daylight Saving Time where and when it is observed.

PETAWAWA AWOS 2
ONTARIO

45°57'00.000" N
77°19'00.000" W
130.10 m
6106396
71625
YWA

Download Data

Hourly Data (September 2017)
Hourly Data Report for September 25, 2017
Temp Definition
°C
Dew Point Temp Definition
°C
Rel Hum Definition
%
Wind Dir Definition
10's deg

Wind Spd Definition
km/h
Visibility Definition
km
Stn Press Definition
kPa
Hmdx Definition


Wind Chill Definition


Weather Definition


TIME
00:00 18.1 17.7 98   0 4.8 100.24     LegendNANA
01:00
02:00 16.5 16.1 98   0 2.3 100.25     LegendNANA
03:00 16.0 15.8 99   0 0.3 100.26     LegendNANA
04:00
05:00 16.1 16.1 100   0 0.2 100.27     LegendNANA
06:00 16.0 15.9 99   0 0.0 100.32     LegendNANA
07:00 16.5 16.3 99   0 0.2 100.32     LegendNANA
08:00 18.4 18.4 100   0 0.2 100.34     LegendNANA
09:00 19.3 19.2 99   0 0.3 100.37     LegendNANA
10:00 21.2 20.0 93 14 6 11.3 100.34 29   LegendNANA
11:00 24.3 19.2 73 8 4 14.5 100.28 31   LegendNANA
12:00 27.3 20.5 66 11 7 14.5 100.21 35   LegendNANA
13:00 29.1 21.6 64 9 9 14.5 100.14 38   LegendNANA
14:00 30.9 20.3 53 18 15 14.5 100.08 39   LegendNANA
15:00 32.5 19.5 46 21 7 14.5 100.03 40   LegendNANA
16:00 32.0 17.5 42 22 11 14.5 100.00 38   LegendNANA
17:00 28.8 19.5 57 22 4 14.5 99.99 36   LegendNANA
18:00 25.8 20.9 74   0 14.5 99.98 34   LegendNANA
19:00 25.1 19.7 72 27 4 14.5 99.99 32   LegendNANA
20:00 23.0 19.6 81   0 14.5 100.00 30   LegendNANA
21:00 21.7 19.4 87   0 14.5 100.01 29   LegendNANA
22:00 19.9 19.0 95   0 11.3 100.02     LegendNANA
23:00 19.4 18.7 96   0 8.0 100.01     LegendNANA

Notes on Data Quality.

Legend

  • E = Estimated
  • M = Missing
  • NA = Not Available
  • ‡ = Partner data that is not subject to review by the National Climate Archives
Date modified: